Volver al catálogo

ONEWEB-0712

ActivoComunicacionesPO
NORAD 54680·PAYLOAD·🇬🇧 United Kingdom

Lanzado Dec 8, 2022 desde Cape Canaveral Space Force Station

Loading…

Próximos Pases (próximas 24 horas)

TLE

ActualizadoSource: CelesTrak SupGP

Época: Sep 14, 2026, 17:51 UTC

1 54680C 22166AQ  26257.74428659  .00002526  00000+0  66167-2 0  2576
2 54680  87.9146 210.9929 0002504  74.5339 322.8093 13.16588193    17

Sigue ONEWEB-0712 en tiempo real con AllMySat

Download on the App Store